Regional Weather Roundup
Issued by NWS

Home | Current Version | Previous Version | Graphics & Text | Print | Product List | Glossary On
Versions: 1 2 3 4 5 6 7 8 9 10 11 12 13 14 15 16 17 18 19 20 21 22 23 24 25 26 27 28 29 30 31 32 33 34 35 36 37 38 39 40 41 42 43 44 45 46 47 48 49 50
000
ASUS43 KLOT 291421
RWRIL

ILLINOIS REGIONAL WEATHER ROUNDUP
NATIONAL WEATHER SERVICE CHICAGO/ROMEOVILLE IL
900 AM CDT WED JUL 29 2015

NOTE: "FAIR" INDICATES FEW OR NO CLOUDS BELOW 12,000 FEET WITH NO
SIGNIFICANT WEATHER AND/OR OBSTRUCTIONS TO VISIBILITY.

* THESE STATIONS ARE NOT UNDER NWS QUALITY CONTROL. THEY ALSO MAY NOT
  REPORT WEATHER SUCH AS PRECIPITATION OR FOG.

ILZ001-002-007-009-015-016-024-291500-
NORTHWEST ILLINOIS

CITY           SKY/WX    TMP DP  RH WIND       PRES   REMARKS
MOLINE         CLOUDY    77  68  73 NW7       30.03R
STERLING*      MOSUNNY   81  70  69 NW13G18   30.01R HX  84
SAVANNA*       PTSUNNY   78  65  65 NW8       30.01S HX  80
$$

ILZ003-004-008-010-011-017-018-291500-
NORTH CENTRAL ILLINOIS

CITY           SKY/WX    TMP DP  RH WIND       PRES   REMARKS
ROCKFORD       PTSUNNY   78  65  63 NW8       30.00R HX  80
FREEPORT*      PTSUNNY   77  66  70 NW13      30.02S
ROCHELLE*      MOSUNNY   75  67  76 NW7       30.00R
DE KALB*       PTSUNNY   77  71  83 NW12G17   30.00S
PERU*          PTSUNNY   78  72  80 NW14      30.00R HX  80
$$

ILZ005-006-012>014-019>023-291500-
NORTHEAST ILLINOIS

CITY           SKY/WX    TMP DP  RH WIND       PRES   REMARKS
CHICAGO-OHARE  CLOUDY    79  72  79 NW12      29.95S HX  82
CHICAGO-MIDWAY CLOUDY    79  71  76 NW8       29.95S HX  82
AURORA         CLOUDY    78  72  81 NW14G20   29.97S HX  80
LANSING*       CLOUDY    77  71  81 W5        29.96S
JOLIET*        PTSUNNY   79  75  88 NW3       29.97R HX  82
WAUKEGAN       CLOUDY    77  70  79 NW12G18   29.95R
DUPAGE AIRPORT CLOUDY    77  71  82 NW14G22   29.97R
KANKAKEE*      CLOUDY    77  74  90 W6        29.98F
WHEELING       CLOUDY    78  72  81 NW14      29.96S HX  80
MORRIS*        PTSUNNY   78  74  87 NW7       29.96S HX  80
ROMEOVILLE*    PTSUNNY   77  74  90 NW8       29.96S
NORTHERLY ISL    N/A     78  70  76 NW2         N/A  HX  80
$$

LMZ740>746-291500-
SOUTHERN LAKE MICHIGAN

STATION/POSITION SKY/WX   TEMP    WIND        PRES    VSBY  WAVE
                          AIR SEA DIR/SP/G                  HT/PER
                          (F)     (DEG/KT/KT) (MB)    (MI)  (FT/S)
HARRISON CRIB              76     320/  6/  7   N/A
BURNHAM HARBOR             78     310/  5/ 13   N/A
CALUMET HARBOR             76     240/  4/  8   N/A
BURNS HARBOR               76     230/  7/ 10 1014.9R
MICHIGAN CITY              75     230/ 14/ 15   N/A
MICHIGAN CITY 6N           75 74  260/ 10/ 12   N/A           1
ST. JOSEPH                 75 74  270/  6/  8   N/A           2/ 3
$$

ILZ025>027-034>036-040-047-049-050-058-095>099-291500-
WEST-CENTRAL ILLINOIS

CITY           SKY/WX    TMP DP  RH WIND       PRES   REMARKS
QUINCY         CLOUDY    75  71  87 N10       30.04R
GALESBURG*     CLOUDY    76  70  83 NW10G16   30.04S
MACOMB*        CLOUDY    78  70  78 N10       30.05R
JACKSONVILLE*  CLOUDY    78  73  85 NW9       30.02R HX  81
PITTSFIELD*    CLOUDY    76  71  83 NW6       30.04R
$$

ILZ028>032-037-038-041>044-048-051>054-059>061-291500-
CENTRAL ILLINOIS

CITY           SKY/WX    TMP DP  RH WIND       PRES   REMARKS
PONTIAC        PTSUNNY   78  75  92 NW6       29.99R
BLOOMINGTON    PTSUNNY   80  75  84 NW7       30.02R HX  85
DECATUR        CLOUDY    81  75  82 W5        29.99S HX  87
PEORIA         PTSUNNY   80  72  76 N10       30.01S HX  84
LACON*         PTSUNNY   75  72  88 NW7       30.00R
LINCOLN*       CLOUDY    78  73  84 N3        29.99S HX  81
SPRINGFIELD    CLOUDY    81  75  82 N7        30.00S HX  87
TAYLORVILLE    CLOUDY    77  75  94 NW5       29.99F
$$

ILZ033-039-045-046-055>057-062-063-291500-
EAST-CENTRAL ILLINOIS

CITY           SKY/WX    TMP DP  RH WIND       PRES   REMARKS
CHAMPAIGN      CLOUDY    78  74  87 N3        30.00R HX  81
DANVILLE*      CLOUDY    76  74  95 SW3       29.96S
RANTOUL*       CLOUDY    78  75  90 W3        29.99S HX  81
MATTOON        CLOUDY    79  74  84 S6        29.98F HX  82
PARIS*         PTSUNNY   79  75  88 SE6       29.99F HX  82
$$

ILZ079-100>102-291500-
SOUTHWEST ILLINOIS

CITY           SKY/WX    TMP DP  RH WIND       PRES   REMARKS
ALTON          PTSUNNY   77  72  83 NW9       30.02R
BELLEVILLE     PTSUNNY   84  81  89 NW6       29.99R HX  98
CAHOKIA*       PTSUNNY   86  74  67 N9        30.01R HX  94
SPARTA*        MOSUNNY   85  78  79 NW8       30.02S HX  96
$$

ILZ064>066-069>071-074>076-080>082-084>086-088>090-092>094-291500-
SOUTH-CENTRAL ILLINOIS

CITY           SKY/WX    TMP DP  RH WIND       PRES   REMARKS
CARBONDALE     SUNNY     85  78  80 W5        30.01R HX  96
CAIRO*         SUNNY     83  79  88 CALM      30.02R HX  95
EFFINGHAM*     PTSUNNY   81  75  83 E5        30.01S HX  86
MARION         MOSUNNY   86  79  79 W7        30.02R HX  99
MT. VERNON     SUNNY     86  75  70 W7        30.01S HX  95
CENTRALIA*     MOSUNNY   84  75  74 NW10      30.00S HX  92
SALEM*         MOSUNNY   85  77  76 W6        30.00S HX  96
METROPOLIS*    SUNNY     83  79  87 CALM      30.02R HX  94
$$

ILZ067-068-072-073-078-083-087-091-291500-
SOUTHEAST ILLINOIS

CITY           SKY/WX    TMP DP  RH WIND       PRES   REMARKS
LAWRENCEVILLE  CLOUDY    81  73  76 W5        30.00S HX  86
FLORA*         CLOUDY    81  76  85 E7        30.00S HX  87
FAIRFIELD*     MOSUNNY   81  78  91 SW3       29.99S HX  88
HARRISBURG*    SUNNY     82  79  90 CALM      30.02S HX  93
ROBINSON*      CLOUDY    80  76  86 S5        30.01S HX  85
CARMI*         MOSUNNY   77  72  82 MISG      30.00S
$$

ABBREVIATIONS USED IN REMARKS
   TC - TEMPERATURE IN CELSIUS
  WCI - WIND CHILL INDEX
   HX - HEAT INDEX
  VSB - VISIBILITY
$$



USA.gov is the U.S. government's official web portal to all federal, state and local government web resources and services.